Home   Weather   Pensacola   Past weeks

Flag for USA Past Weather in Pensacola, Florida, USA — Yesterday and Last 2 Weeks

Now
80 °F

Passing clouds.


Feels Like: 84 °F
Forecast: 76 / 91 °F
Wind: 7 mph from Northwest

Location: Pensacola Regional Airport

Current Time: Jul 25, 2017 at 9:58:13 pm

Latest Report: Jul 25, 2017 at 8:53 pm


Visibility: 10 mi

Pressure: 30.08 "Hg

Humidity: 79%

Dew Point: 73 °F

Location of PensacolaLocation

Past Weather in Pensacola — Graph

°F

Pensacola Temperature Yesterday

Maximum temperature yesterday: 89 °F (at 3:53 pm)
Minimum temperature yesterday: 77 °F (at 8:31 am)
Average temperature yesterday: 82 °F

High & Low Weather Summary for the Past Weeks

 TemperatureHumidityPressure
High97 °F (Jul 20, 1:53 pm)90% (Jul 11, 6:53 am)30.18 "Hg (Jul 11, 6:53 am)
Low75 °F (Jul 16, 6:57 am)44% (Jul 20, 2:53 pm)29.92 "Hg (Jul 23, 5:53 pm)
Average83 °F74%30.05 "Hg
* Reported Jul 10 7:53 pm — Jul 25 7:53 pm, Pensacola. Weather by CustomWeather, © 2017

Note: Actual official high and low records may vary slightly from our data, if they occured in-between our weather recording intervals... More about our weather records

Advertising

Pensacola Weather History for the Previous 24 Hours

Scroll right to see more
 ConditionsComfort  
Time TempWeatherWind HumidityBarometerVisibility
7:53 pm
Tue, Jul 25
82 °FPassing clouds.12 mph74%30.08 "Hg10 mi
6:53 pm83 °FClear.7 mph72%30.05 "Hg10 mi
5:53 pm85 °FScattered clouds.6 mph72%30.07 "Hg10 mi
4:53 pm88 °FPassing clouds.6 mph61%30.08 "Hg10 mi
3:53 pm86 °FSunny.7 mph65%30.08 "Hg10 mi
3:00 pm84 °FPassing clouds.12 mph72%30.11 "Hg10 mi
2:37 pm84 °FMostly cloudy.12 mph77%30.12 "Hg5 mi
1:53 pm80 °FRain. Partly sunny.12 mph79%30.13 "Hg6 mi
12:53 pm88 °FThundershowers. Partly sunny.10 mph67%30.13 "Hg10 mi
12:39 pm87 °FThundershowers. Scattered clouds.10 mph69%30.13 "Hg10 mi
12:32 pm85 °FScattered clouds.12 mph72%30.12 "Hg10 mi
12:01 pm84 °FThunderstorms. Sunny.10 mph77%30.13 "Hg10 mi
11:17 am86 °FScattered clouds.7 mph72%30.12 "Hg5 mi
10:53 am86 °FThundershowers. Scattered clouds.7 mph72%30.13 "Hg5 mi
10:34 am83 °FThundershowers. Haze.6 mph77%30.13 "Hg5 mi
9:53 am81 °FLight rain. Mostly cloudy.7 mph82%30.14 "Hg2 mi
9:36 am83 °FHeavy rain. Broken clouds.10 mph77%30.13 "Hg2 mi
8:53 am83 °FSunny.7 mph77%30.13 "Hg10 mi
7:53 am81 °FSunny.7 mph79%30.13 "Hg10 mi
6:53 am79 °FSunny.5 mph82%30.12 "Hg10 mi
5:53 am78 °FScattered clouds.6 mph82%30.10 "Hg10 mi
4:53 am78 °FPassing clouds.6 mph82%30.08 "Hg10 mi
3:53 am78 °FClear.6 mph84%30.05 "Hg10 mi
2:53 am78 °FClear.6 mph84%30.04 "Hg10 mi
1:53 am78 °FClear.6 mph84%30.05 "Hg10 mi
12:53 am79 °FClear.7 mph82%30.06 "Hg10 mi
11:53 pm
Mon, Jul 24
79 °FClear.6 mph82%30.06 "Hg10 mi
11:23 pm80 °FPassing clouds.6 mph79%30.06 "Hg10 mi
10:53 pm80 °FPassing clouds.6 mph79%30.06 "Hg10 mi
9:53 pm80 °FClear.6 mph76%30.04 "Hg10 mi
Weather by CustomWeather, © 2017

See weather overviewHow to use our weather pages